CAPE
0 0 0 0 0 0 0 0 0 0 0 0 0 0 81 0 0 17 0 0 562 803 876 951 1250 998 860 772 796 782 693 394 238 195 83 29 14 3 0 0 0 4 101 195 154 168 298 392 518
0 0 0 0 0 0 0 0 0 0 0 0 0 0 0 0 0 0 0 0 689 815 970 895 958 426 48 6 137 340 207 80 29 24 0 0 0 0 1 1 1 1 3 3 2 4 6 8 26
0 0 0 0 0 0 0 0 0 0 0 0 0 0 0 0 0 0 0 39 86 251 723 733 546 65 0 6 120 94 18 2 10 0 0 0 0 0 0 0 1 2 2 3 4 3 3 3 3
0 0 0 0 0 0 0 0 0 0 0 0 0 0 0 0 0 0 0 0 0 0 2 366 116 0 0 0 7 2 0 0 0 0 0 0 0 0 0 0 0 0 4 5 7 5 6 4 5
0 0 0 0 0 0 0 0 0 0 0 0 0 0 0 0 0 0 0 0 0 0 0 0 0 0 0 0 0 0 0 0 0 0 0 0 0 0 0 0 0 0 1 2 3 8 8 7 8
0 0 0 0 0 0 0 0 0 0 0 0 0 0 0 0 0 0 0 0 0 0 0 0 0 0 0 0 0 0 0 0 0 0 0 0 0 0 0 0 0 1 1 2 3 4 3 1 1
0 0 0 0 0 0 0 0 0 0 0 0 0 0 0 0 0 0 0 0 0 0 0 0 0 0 0 0 0 0 0 0 0 0 0 0 0 0 0 0 0 0 0 0 2 4 4 3 2
0 0 0 0 0 0 0 0 0 0 0 0 0 0 0 0 0 0 0 0 0 0 0 0 0 0 0 0 0 0 39 20 0 0 0 0 0 0 0 0 0 0 0 0 0 0 0 0 0
0 0 0 0 0 0 0 0 0 0 0 0 0 0 0 0 0 0 0 0 0 0 0 0 0 0 0 0 0 0 0 0 0 0 0 0 0 0 0 0 0 0 0 0 0 0 0 0 0
0 0 0 0 0 0 0 0 0 0 0 0 0 0 0 0 0 0 0 0 0 0 0 0 0 0 0 0 0 0 0 0 0 0 0 0 0 0 0 0 0 0 0 0 0 0 0 0 0
0 0 0 0 0 0 0 0 0 0 0 0 0 0 0 0 0 0 0 0 0 0 0 0 0 0 0 0 0 0 0 0 0 0 0 0 0 0 0 0 0 0 0 0 0 0 0 0 0
0 0 0 0 0 0 0 0 0 0 0 0 0 0 0 0 0 0 0 0 0 0 0 0 0 0 0 0 0 0 0 0 0 0 0 0 0 0 0 0 0 0 0 0 0 0 0 0 0
0 0 0 0 0 0 0 0 0 0 0 0 0 0 0 0 0 0 0 0 0 0 0 0 0 0 0 0 0 0 0 0 0 0 0 0 0 0 0 0 0 0 0 0 0 0 0 0 0
0 0 0 0 0 0 0 0 0 0 0 0 0 0 0 0 0 0 0 0 0 0 0 0 0 0 0 0 0 0 0 0 0 0 0 0 0 0 0 0 0 0 0 0 0 0 0 0 0
0 0 0 0 0 0 0 0 0 0 0 0 0 0 0 0 0 0 0 0 0 0 0 0 0 0 0 0 0 0 0 0 0 0 0 0 0 0 0 0 0 0 0 0 0 0 0 0 0
0 0 0 0 0 0 0 0 0 0 0 0 0 0 0 0 0 0 0 0 0 0 0 0 0 0 0 0 0 0 0 0 0 0 0 0 0 0 0 0 0 0 0 0 0 0 0 0 0
0 0 0 0 0 0 0 0 0 0 0 0 0 0 0 0 0 0 0 0 0 0 0 0 0 0 0 0 0 0 0 0 0 0 0 0 0 0 0 0 0 0 0 0 0 0 0 0 0
0 0 0 0 0 0 0 0 0 0 0 0 0 0 0 0 0 0 0 0 0 0 0 0 0 0 0 0 0 0 0 0 0 0 0 0 0 0 0 0 0 0 0 0 0 0 0 0 0
0 0 0 0 0 0 0 0 0 0 0 0 0 0 0 0 0 0 0 0 0 0 0 0 0 0 0 0 0 0 0 0 0 0 0 0 0 0 0 0 0 0 0 0 0 0 0 0 0
0 0 0 0 0 0 0 0 0 0 0 0 0 0 0 0 0 0 0 0 0 0 0 0 0 0 0 0 0 0 0 0 0 0 0 0 0 0 0 0 0 0 0 0 0 0 0 0 0
0 0 0 0 0 0 0 0 0 0 0 0 0 0 0 0 0 0 0 0 0 0 0 0 0 0 0 0 0 0 0 0 0 0 0 0 0 0 0 0 0 0 0 0 0 0 0 0 0
0 0 0 0 0 0 0 0 0 0 0 0 0 0 0 0 0 0 0 0 0 0 0 0 0 0 0 0 0 0 0 0 0 0 0 0 0 0 0 0 0 0 0 0 0 0 0 0 0
0 0 0 0 0 0 0 0 0 0 0 0 0 0 0 0 0 0 0 0 0 0 0 0 0 0 0 0 0 0 0 0 0 0 0 0 0 0 0 0 0 0 0 0 0 0 0 0 0
0 0 0 0 0 0 0 0 0 0 0 0 0 0 0 0 0 0 0 0 0 0 0 0 0 0 0 0 0 0 0 0 0 0 0 0 0 0 0 0 0 0 0 0 0 0 0 0 0
0 0 0 0 0 0 0 0 0 0 0 0 0 0 0 0 0 0 0 0 0 0 0 0 0 0 0 0 0 0 0 0 0 0 0 0 0 0 0 0 0 0 0 0 0 0 0 0 0
0 0 0 0 0 0 0 0 0 0 0 0 0 0 0 0 0 0 0 0 0 0 0 0 0 0 0 0 0 0 0 0 0 0 0 0 0 0 0 0 0 0 0 0 0 0 0 0 0
0 0 0 0 0 0 0 0 0 0 0 0 0 0 0 0 0 0 0 0 0 0 0 0 0 0 0 0 0 0 0 0 0 0 0 0 0 0 0 0 0 0 0 0 0 0 0 0 0
0 0 0 0 0 0 0 0 0 0 0 0 0 0 0 0 0 0 0 0 0 0 0 0 0 0 0 0 0 0 0 0 0 0 0 0 0 0 0 0 0 0 0 0 0 0 0 0 0
0 0 0 0 0 0 0 0 0 0 0 0 0 0 0 0 0 0 0 0 0 0 0 0 0 0 0 0 0 0 0 0 0 0 0 0 0 0 0 0 0 0 0 0 0 0 0 0 0
0 0 0 0 0 0 0 0 0 0 0 0 0 0 0 0 0 0 0 0 0 0 0 0 0 0 0 0 0 0 0 0 0 0 0 0 0 0 0 0 0 0 0 0 0 0 0 0 0
CIN
-0 -0 -0 -0 -0 -0 -0 -0 -0 -0 -0 -0 -0 -0 -267 -0 -0 -123 -0 -0 -61 -12 -6 -3 -0 -1 -12 -18 -10 -9 -14 -56 -99 -129 -240 -357 -365 -381 -0 -0 -0 -276 -210 -89 -103 -82 -22 -11 -1
-0 -0 -0 -0 -0 -0 -0 -0 -0 -0 -0 -0 -0 -0 -0 -0 -0 -0 -0 -0 -30 -8 -4 -15 -14 -87 -286 -207 -206 -108 -157 -257 -354 -393 -0 -0 -0 -0 -0 -0 -0 -0 -0 -0 -0 -0 -0 -77 -234
-0 -0 -0 -0 -0 -0 -0 -0 -0 -0 -0 -0 -0 -0 -0 -0 -0 -0 -0 -330 -280 -156 -38 -42 -74 -274 -0 -306 -254 -297 -446 -145 -475 -0 -0 -0 -0 -0 -0 -0 -0 -0 -0 -0 -0 -0 -0 -0 -0
-0 -0 -0 -0 -0 -0 -0 -0 -0 -0 -0 -0 -0 -0 -0 -0 -0 -0 -0 -0 -0 -0 -6 -110 -224 -0 -0 -0 -472 -212 -0 -0 -0 -0 -0 -0 -0 -0 -0 -0 -0 -0 -0 -0 -0 -0 -0 -0 -0
-0 -0 -0 -0 -0 -0 -0 -0 -0 -0 -0 -0 -0 -0 -0 -0 -0 -0 -0 -0 -0 -0 -0 -0 -0 -0 -0 -0 -0 -0 -0 -0 -0 -0 -0 -0 -0 -0 -0 -0 -0 -0 -0 -0 -0 -0 -0 -0 -0
-0 -0 -0 -0 -0 -0 -0 -0 -0 -0 -0 -0 -0 -0 -0 -0 -0 -0 -0 -0 -0 -0 -0 -0 -0 -0 -0 -0 -0 -0 -0 -0 -0 -0 -0 -0 -0 -0 -0 -0 -0 -0 -0 -0 -0 -0 -0 -0 -0
-0 -0 -0 -0 -0 -0 -0 -0 -0 -0 -0 -0 -0 -0 -0 -0 -0 -0 -0 -0 -0 -0 -0 -0 -0 -0 -0 -0 -0 -0 -0 -0 -0 -0 -0 -0 -0 -0 -0 -0 -0 -0 -0 -0 -0 -0 -0 -0 -0
-0 -0 -0 -0 -0 -0 -0 -0 -0 -0 -0 -0 -0 -0 -0 -0 -0 -0 -0 -0 -0 -0 -0 -0 -0 -0 -0 -0 -0 -0 -3 -11 -0 -0 -0 -0 -0 -0 -0 -0 -0 -0 -0 -0 -0 -0 -0 -0 -0
-0 -0 -0 -0 -0 -0 -0 -0 -0 -0 -0 -0 -0 -0 -0 -0 -0 -0 -0 -0 -0 -0 -0 -0 -0 -0 -0 -0 -0 -0 -0 -0 -0 -0 -0 -0 -0 -0 -0 -0 -0 -0 -0 -0 -0 -0 -0 -0 -0
-0 -0 -0 -0 -0 -0 -0 -0 -0 -0 -0 -0 -0 -0 -0 -0 -0 -0 -0 -0 -0 -0 -0 -0 -0 -0 -0 -0 -0 -0 -0 -0 -0 -0 -0 -0 -0 -0 -0 -0 -0 -0 -0 -0 -0 -0 -0 -0 -0
-0 -0 -0 -0 -0 -0 -0 -0 -0 -0 -0 -0 -0 -0 -0 -0 -0 -0 -0 -0 -0 -0 -0 -0 -0 -0 -0 -0 -0 -0 -0 -0 -0 -0 -0 -0 -0 -0 -0 -0 -0 -0 -0 -0 -0 -0 -0 -0 -0
-0 -0 -0 -0 -0 -0 -0 -0 -0 -0 -0 -0 -0 -0 -0 -0 -0 -0 -0 -0 -0 -0 -0 -0 -0 -0 -0 -0 -0 -0 -0 -0 -0 -0 -0 -0 -0 -0 -0 -0 -0 -0 -0 -0 -0 -0 -0 -0 -0
-0 -0 -0 -0 -0 -0 -0 -0 -0 -0 -0 -0 -0 -0 -0 -0 -0 -0 -0 -0 -0 -0 -0 -0 -0 -0 -0 -0 -0 -0 -0 -0 -0 -0 -0 -0 -0 -0 -0 -0 -0 -0 -0 -0 -0 -0 -0 -0 -0
-0 -0 -0 -0 -0 -0 -0 -0 -0 -0 -0 -0 -0 -0 -0 -0 -0 -0 -0 -0 -0 -0 -0 -0 -0 -0 -0 -0 -0 -0 -0 -0 -0 -0 -0 -0 -0 -0 -0 -0 -0 -0 -0 -0 -0 -0 -0 -0 -0
-0 -0 -0 -0 -0 -0 -0 -0 -0 -0 -0 -0 -0 -0 -0 -0 -0 -0 -0 -0 -0 -0 -0 -0 -0 -0 -0 -0 -0 -0 -0 -0 -0 -0 -0 -0 -0 -0 -0 -0 -0 -0 -0 -0 -0 -0 -0 -0 -0
-0 -0 -0 -0 -0 -0 -0 -0 -0 -0 -0 -0 -0 -0 -0 -0 -0 -0 -0 -0 -0 -0 -0 -0 -0 -0 -0 -0 -0 -0 -0 -0 -0 -0 -0 -0 -0 -0 -0 -0 -0 -0 -0 -0 -0 -0 -0 -0 -0
-0 -0 -0 -0 -0 -0 -0 -0 -0 -0 -0 -0 -0 -0 -0 -0 -0 -0 -0 -0 -0 -0 -0 -0 -0 -0 -0 -0 -0 -0 -0 -0 -0 -0 -0 -0 -0 -0 -0 -0 -0 -0 -0 -0 -0 -0 -0 -0 -0
-0 -0 -0 -0 -0 -0 -0 -0 -0 -0 -0 -0 -0 -0 -0 -0 -0 -0 -0 -0 -0 -0 -0 -0 -0 -0 -0 -0 -0 -0 -0 -0 -0 -0 -0 -0 -0 -0 -0 -0 -0 -0 -0 -0 -0 -0 -0 -0 -0
-0 -0 -0 -0 -0 -0 -0 -0 -0 -0 -0 -0 -0 -0 -0 -0 -0 -0 -0 -0 -0 -0 -0 -0 -0 -0 -0 -0 -0 -0 -0 -0 -0 -0 -0 -0 -0 -0 -0 -0 -0 -0 -0 -0 -0 -0 -0 -0 -0
-0 -0 -0 -0 -0 -0 -0 -0 -0 -0 -0 -0 -0 -0 -0 -0 -0 -0 -0 -0 -0 -0 -0 -0 -0 -0 -0 -0 -0 -0 -0 -0 -0 -0 -0 -0 -0 -0 -0 -0 -0 -0 -0 -0 -0 -0 -0 -0 -0
-0 -0 -0 -0 -0 -0 -0 -0 -0 -0 -0 -0 -0 -0 -0 -0 -0 -0 -0 -0 -0 -0 -0 -0 -0 -0 -0 -0 -0 -0 -0 -0 -0 -0 -0 -0 -0 -0 -0 -0 -0 -0 -0 -0 -0 -0 -0 -0 -0
-0 -0 -0 -0 -0 -0 -0 -0 -0 -0 -0 -0 -0 -0 -0 -0 -0 -0 -0 -0 -0 -0 -0 -0 -0 -0 -0 -0 -0 -0 -0 -0 -0 -0 -0 -0 -0 -0 -0 -0 -0 -0 -0 -0 -0 -0 -0 -0 -0
-0 -0 -0 -0 -0 -0 -0 -0 -0 -0 -0 -0 -0 -0 -0 -0 -0 -0 -0 -0 -0 -0 -0 -0 -0 -0 -0 -0 -0 -0 -0 -0 -0 -0 -0 -0 -0 -0 -0 -0 -0 -0 -0 -0 -0 -0 -0 -0 -0
-0 -0 -0 -0 -0 -0 -0 -0 -0 -0 -0 -0 -0 -0 -0 -0 -0 -0 -0 -0 -0 -0 -0 -0 -0 -0 -0 -0 -0 -0 -0 -0 -0 -0 -0 -0 -0 -0 -0 -0 -0 -0 -0 -0 -0 -0 -0 -0 -0
-0 -0 -0 -0 -0 -0 -0 -0 -0 -0 -0 -0 -0 -0 -0 -0 -0 -0 -0 -0 -0 -0 -0 -0 -0 -0 -0 -0 -0 -0 -0 -0 -0 -0 -0 -0 -0 -0 -0 -0 -0 -0 -0 -0 -0 -0 -0 -0 -0
-0 -0 -0 -0 -0 -0 -0 -0 -0 -0 -0 -0 -0 -0 -0 -0 -0 -0 -0 -0 -0 -0 -0 -0 -0 -0 -0 -0 -0 -0 -0 -0 -0 -0 -0 -0 -0 -0 -0 -0 -0 -0 -0 -0 -0 -0 -0 -0 -0
-0 -0 -0 -0 -0 -0 -0 -0 -0 -0 -0 -0 -0 -0 -0 -0 -0 -0 -0 -0 -0 -0 -0 -0 -0 -0 -0 -0 -0 -0 -0 -0 -0 -0 -0 -0 -0 -0 -0 -0 -0 -0 -0 -0 -0 -0 -0 -0 -0
-0 -0 -0 -0 -0 -0 -0 -0 -0 -0 -0 -0 -0 -0 -0 -0 -0 -0 -0 -0 -0 -0 -0 -0 -0 -0 -0 -0 -0 -0 -0 -0 -0 -0 -0 -0 -0 -0 -0 -0 -0 -0 -0 -0 -0 -0 -0 -0 -0
-0 -0 -0 -0 -0 -0 -0 -0 -0 -0 -0 -0 -0 -0 -0 -0 -0 -0 -0 -0 -0 -0 -0 -0 -0 -0 -0 -0 -0 -0 -0 -0 -0 -0 -0 -0 -0 -0 -0 -0 -0 -0 -0 -0 -0 -0 -0 -0 -0
-0 -0 -0 -0 -0 -0 -0 -0 -0 -0 -0 -0 -0 -0 -0 -0 -0 -0 -0 -0 -0 -0 -0 -0 -0 -0 -0 -0 -0 -0 -0 -0 -0 -0 -0 -0 -0 -0 -0 -0 -0 -0 -0 -0 -0 -0 -0 -0 -0
Wind_Speed
7 5 2 4 3 3 1 3 1 4 3 1 3 3 5 4 2 4 0 8 10 9 7 9 10 10 11 10 10 10 11 12 12 13 14 15 15 16 16 16 16 16 16 18 17 17 18 16 15
4 4 5 2 5 2 3 2 6 4 5 9 6 3 4 4 2 4 3 8 8 8 7 8 9 10 10 10 10 11 12 12 13 14 15 15 16 17 16 16 16 17 17 17 17 17 17 16 15
1 4 3 4 3 4 4 4 5 4 8 2 5 5 2 4 2 2 2 3 7 7 6 8 9 10 10 10 11 11 12 13 14 15 15 15 15 16 16 16 17 17 17 17 17 17 17 17 16
3 4 4 3 4 3 2 4 4 10 2 1 5 7 2 1 0 0 1 4 6 6 6 7 9 9 10 9 10 11 12 13 14 15 15 15 16 16 16 17 17 17 17 17 17 17 17 18 18
4 3 3 2 2 1 2 4 6 5 4 3 2 6 2 1 3 4 4 4 6 5 5 6 8 9 9 9 10 11 12 13 14 15 15 15 16 16 16 16 16 17 16 16 16 15 17 17 17
4 2 2 3 3 1 2 5 5 3 2 4 5 5 3 2 3 3 5 7 7 7 5 6 8 8 9 9 10 11 12 13 14 13 14 14 15 15 15 16 16 16 17 16 16 15 16 17 17
3 2 3 3 4 3 6 6 5 5 5 2 8 5 2 2 3 5 6 7 7 7 7 5 5 7 9 8 10 11 12 12 11 12 12 12 12 13 13 13 14 15 16 16 16 16 15 15 15
5 2 2 3 5 5 6 4 3 3 2 3 1 5 5 5 7 6 6 7 7 6 6 5 4 5 5 6 10 10 10 10 9 9 9 9 9 10 10 9 12 12 13 15 14 14 16 18 19
3 1 3 4 7 4 5 4 1 2 6 3 2 2 2 12 9 6 5 4 4 5 6 5 4 5 5 6 7 9 9 8 7 6 7 5 4 5 6 8 10 10 11 12 14 15 16 15 12
2 2 6 2 3 4 5 3 8 5 5 2 3 4 7 10 8 8 6 5 3 3 5 5 4 5 4 5 5 5 5 5 5 5 5 4 5 5 5 5 8 8 9 11 13 13 12 9 6
3 5 2 2 2 4 6 3 2 8 3 6 8 11 9 7 7 7 5 5 4 2 3 5 5 4 4 4 3 3 3 3 3 5 5 5 4 4 4 4 4 5 6 4 5 6 5 7 6
6 5 3 2 1 3 6 6 3 3 3 2 8 12 8 10 7 7 6 5 5 4 4 5 5 5 5 4 4 4 3 3 3 3 4 4 3 4 5 4 5 5 4 5 5 4 7 7 8
9 3 2 1 2 3 5 2 4 5 1 6 13 8 10 9 7 5 5 4 5 5 4 5 5 6 5 6 4 4 4 4 4 4 5 4 4 4 4 5 5 5 4 4 5 5 7 8 9
3 3 3 2 2 1 4 2 1 2 4 8 12 9 9 10 9 6 6 6 5 5 5 5 6 5 5 5 5 4 4 4 5 4 5 6 4 4 5 5 5 5 5 4 5 6 6 7 8
5 4 1 4 4 2 3 3 7 3 6 11 9 8 8 7 7 8 7 6 6 5 5 6 6 5 6 6 6 5 5 5 5 5 6 7 5 5 5 5 5 5 5 6 6 7 6 6 7
4 2 5 3 5 2 4 7 3 6 11 10 8 7 7 6 7 6 6 6 5 6 6 5 5 6 6 6 6 5 5 5 5 5 5 7 7 7 6 5 6 6 6 6 6 6 6 6 7
1 5 5 2 6 3 4 4 2 4 7 9 8 8 7 6 5 5 6 6 6 6 6 6 6 6 7 7 6 7 8 6 5 6 6 8 8 8 7 6 6 7 6 7 6 6 7 6 8
8 5 3 4 6 3 4 6 2 5 6 10 8 8 8 8 7 7 7 6 6 5 5 6 5 5 5 5 5 5 6 6 5 6 6 8 7 8 7 6 7 7 6 7 8 8 7 5 9
6 6 5 2 3 4 6 5 6 6 5 7 8 9 8 8 5 6 6 6 6 5 6 5 5 4 3 2 3 3 3 3 4 5 8 7 7 7 7 5 7 7 7 7 9 6 8 6 11
4 6 4 1 2 3 1 9 8 8 8 11 13 10 10 7 7 7 8 6 5 6 6 6 6 5 4 3 2 2 2 3 4 3 6 6 6 6 6 6 6 7 5 8 9 9 5 3 7
2 6 5 3 2 3 3 7 5 3 4 6 7 7 7 12 12 9 9 7 7 7 6 6 6 6 4 4 4 3 3 2 2 3 3 4 5 4 4 5 5 5 5 5 6 7 8 6 4
5 5 6 7 4 3 1 6 4 4 4 6 9 10 11 10 7 8 9 8 8 6 5 6 6 6 5 5 5 5 3 2 1 1 1 3 4 4 4 4 4 4 3 5 5 5 4 4 5
3 5 5 4 5 2 1 1 7 0 6 8 9 10 10 11 12 11 10 9 7 7 6 6 6 6 5 6 6 5 5 2 1 1 3 4 4 4 4 5 4 4 3 4 4 4 4 3 3
10 8 8 5 3 1 4 5 6 5 5 3 4 8 10 11 10 8 7 8 7 5 5 5 6 5 5 5 5 6 5 3 2 3 4 4 4 4 6 7 7 6 7 6 6 5 4 4 3
4 7 3 3 2 6 1 2 10 3 3 0 7 9 10 11 11 11 10 8 7 6 6 5 5 5 4 5 5 4 4 4 3 3 3 5 5 5 7 7 8 7 7 8 7 7 7 6 5
5 5 7 9 6 3 3 8 7 1 2 2 3 8 10 10 9 10 8 7 7 6 5 5 5 5 4 4 5 4 4 2 2 3 3 3 4 6 8 9 9 11 11 10 10 7 7 7 6
6 5 4 8 2 2 4 7 4 1 2 3 7 11 11 10 9 9 8 7 7 6 5 6 6 6 5 5 4 4 4 4 3 3 3 3 4 6 8 9 10 11 11 11 11 8 10 9 8
3 5 4 3 5 5 3 5 6 5 7 6 8 12 9 8 9 8 7 7 5 6 6 7 6 7 6 5 4 3 3 3 3 3 4 5 5 6 8 9 9 11 11 12 11 9 10 10 9
3 3 4 5 3 6 3 7 5 7 7 9 8 9 11 10 8 8 7 7 7 8 8 7 7 6 5 3 2 3 3 3 3 3 4 5 6 7 8 9 9 10 11 12 11 11 12 12 13
2 6 6 6 6 1 3 7 2 2 2 6 7 9 7 9 9 9 9 9 8 8 6 6 5 4 3 2 2 3 3 4 5 6 7 7 8 8 9 9 10 11 11 12 12 13 13 14 14
Wind_Direction
346 341 56 43 64 57 160 216 119 136 170 67 75 147 135 54 111 120 312 20 134 105 95 97 96 89 81 77 75 76 74 67 66 63 59 58 55 53 50 44 39 33 30 29 23 19 18 17 16
339 1 46 78 91 110 240 200 179 178 132 126 84 73 58 93 83 107 110 8 88 96 96 97 94 89 85 81 84 82 78 75 71 68 65 62 61 58 55 51 47 44 43 39 34 29 22 14 10
36 40 67 90 112 183 207 196 150 133 148 115 102 43 101 111 101 92 46 92 89 81 82 89 91 89 86 85 86 85 82 80 78 75 71 65 61 57 55 51 49 45 41 38 36 34 29 22 14
19 20 51 91 194 224 210 170 140 138 204 124 124 92 84 19 335 359 88 108 97 72 61 79 88 87 86 88 88 85 84 85 83 78 70 66 65 62 58 55 51 47 43 39 35 36 35 29 23
37 64 62 102 237 252 237 154 146 148 131 131 167 152 103 69 89 75 98 102 108 80 54 67 85 88 89 92 91 92 91 88 81 76 71 69 64 59 56 52 48 44 42 40 36 32 30 26 20
39 76 81 196 229 227 177 160 149 125 126 153 96 114 150 342 143 71 83 79 72 75 57 53 49 80 88 93 97 97 95 91 81 77 72 67 62 55 49 45 40 39 37 36 35 32 28 24 20
76 83 218 186 189 193 187 154 167 147 135 177 144 107 142 171 120 96 83 78 68 63 63 55 59 65 67 85 93 98 97 90 82 75 70 63 57 53 49 41 42 34 31 32 27 26 25 26 26
91 60 176 216 189 215 169 126 131 128 139 123 89 168 180 180 148 105 79 70 65 60 57 52 77 89 84 89 92 91 92 92 87 83 73 63 54 48 41 40 30 29 33 29 26 22 23 22 16
86 337 247 221 155 204 172 132 136 110 113 78 39 124 342 125 133 120 107 83 62 55 46 48 89 106 103 98 84 84 82 74 68 67 60 56 48 44 34 23 25 23 25 27 25 21 18 12 6
295 194 235 207 214 198 171 165 154 144 134 72 75 66 115 133 145 141 137 121 91 63 50 52 89 116 101 102 95 86 75 70 62 61 45 46 41 34 33 26 25 21 22 22 21 17 8 357 343
227 226 285 261 270 171 140 119 152 128 206 185 181 162 154 147 144 137 129 122 117 82 56 52 78 98 108 110 99 91 85 74 61 54 51 57 59 39 33 28 20 13 15 19 10 4 2 345 340
303 245 263 244 279 147 161 129 129 205 180 128 164 153 149 156 156 150 140 137 128 106 75 61 71 93 94 98 96 103 96 81 70 63 48 41 41 41 34 32 11 11 5 359 2 351 349 354 350
212 182 229 283 105 101 119 148 167 219 101 105 130 139 153 152 152 145 138 127 118 105 81 66 86 87 96 94 95 89 81 74 74 65 51 39 43 38 36 35 18 18 12 6 353 349 352 352 351
175 131 196 231 173 120 147 230 162 190 128 130 146 156 157 158 159 140 156 143 125 114 106 87 77 86 100 93 87 76 81 78 78 69 57 53 48 35 30 34 26 16 10 4 356 352 352 350 349
148 131 198 222 198 178 143 260 232 147 142 149 154 152 154 165 163 167 162 147 135 117 111 99 104 98 95 91 89 82 80 78 67 57 50 48 45 40 37 33 26 14 11 11 5 2 2 359 352
136 91 174 197 163 220 155 260 199 160 147 163 162 161 164 167 178 164 156 133 140 121 107 99 94 92 92 91 90 88 80 76 67 55 44 36 36 38 43 35 25 10 18 15 7 10 360 2 355
317 184 189 208 205 147 179 250 124 167 166 170 179 177 173 167 172 167 152 147 145 131 129 103 96 94 99 94 90 85 81 72 64 56 48 38 41 40 45 36 25 19 25 23 8 6 6 1 354
181 168 186 205 204 175 174 252 236 183 181 191 186 182 181 182 182 163 150 142 128 124 106 103 91 90 99 102 104 92 85 74 61 53 50 45 41 38 40 37 32 25 25 19 10 6 5 3 351
135 118 151 222 179 153 217 258 237 188 191 196 199 192 188 185 172 150 140 132 128 117 116 105 101 70 121 116 124 107 89 81 68 56 49 46 39 35 34 32 26 24 31 20 13 353 2 10 358
131 120 166 63 130 137 28 266 240 188 210 200 191 196 187 166 156 150 146 149 153 136 124 110 98 90 85 101 117 120 131 88 78 65 52 42 39 34 38 30 27 26 20 22 19 18 353 353 13
127 143 168 149 125 67 334 285 219 213 187 175 198 191 178 177 166 162 158 154 144 141 137 124 112 100 89 114 116 97 93 92 57 36 31 20 24 33 36 32 26 22 23 18 12 15 16 350 346
153 169 131 130 114 214 354 271 276 215 214 207 195 185 180 170 154 156 157 157 158 144 136 127 119 106 91 91 93 92 97 105 82 19 354 353 9 13 20 19 14 12 5 7 2 11 10 355 352
154 106 115 98 95 67 215 122 266 150 237 222 204 195 181 173 164 165 167 161 157 151 145 133 120 103 94 90 95 100 98 98 110 32 1 359 353 350 352 347 337 343 342 335 333 341 347 345 315
159 84 49 58 75 311 216 170 271 196 207 203 174 180 169 161 156 150 150 144 143 148 141 134 121 107 107 97 92 99 106 98 51 24 10 358 345 343 356 345 338 329 324 325 318 305 289 288 273
69 93 35 10 354 219 49 123 251 226 226 237 184 165 160 155 152 154 157 158 152 150 148 140 132 117 104 93 86 82 83 76 63 33 359 342 340 333 334 330 328 317 305 295 287 280 276 268 259
186 147 162 190 191 200 92 229 260 190 347 346 113 139 143 149 156 161 156 147 149 154 153 137 130 113 102 97 95 87 79 66 49 13 349 341 324 317 321 330 326 317 312 302 289 274 271 267 261
180 195 169 107 21 56 208 281 274 213 95 79 134 141 154 157 155 145 142 145 149 151 137 131 118 107 91 88 85 70 65 56 36 8 334 322 323 335 338 330 325 321 314 309 302 287 276 273 271
165 162 104 16 144 224 267 274 239 197 189 163 163 162 155 144 143 141 134 133 121 114 114 106 102 98 94 90 77 72 41 19 354 338 338 337 330 330 326 322 321 318 313 307 302 291 277 269 264
139 195 62 113 151 165 163 255 208 195 188 180 178 167 154 145 133 123 111 101 106 102 101 100 95 97 85 69 48 9 356 347 327 313 310 308 300 303 311 311 306 303 303 302 300 292 284 275 274
189 183 161 138 207 98 140 269 91 194 250 161 154 142 122 123 123 119 117 114 109 106 102 98 90 83 61 31 357 339 332 325 316 304 295 300 303 299 288 288 289 289 289 289 287 288 287 284 277